When you browse on this site, cookies collect data to enhance your experience and personalize the content and advertising you see.
Visit our Privacy Policy to learn more. By continuing to use the site, you agree to this use of cookies and data.
  • Em Portugal
  • Lista de países
  • Para 7 dias
  • Temperatura da água
  • Mapas de satélite
  • Mapa do tempo
  • Widgets de tempo
  • user-avatar
    Iniciar Sessão

    Previsão horária em Uida

    Hoje, 25 Maio, Sábado

    Tempo Temperatura Precipitação Vento Pressão Humidade
    00:00 +29°C° 0 mm 1 m/s 757 mmHg 79%
    01:00 +29°C° 0 mm 1 m/s 757 mmHg 79%
    02:00 +29°C° 0 mm 1 m/s 756 mmHg 79%
    03:00 +29°C° 0 mm 1 m/s 756 mmHg 80%
    04:00 +29°C° 0 mm 1 m/s 756 mmHg 80%
    05:00 +29°C° 0 mm 1 m/s 756 mmHg 81%
    06:00 +29°C° 0 mm 1 m/s 756 mmHg 81%
    07:00 +30°C° 0 mm 2 m/s 756 mmHg 73%
    08:00 +32°C° 0 mm 2 m/s 757 mmHg 64%
    09:00 +35°C° 0 mm 2 m/s 757 mmHg 55%
    10:00 +36°C° 0 mm 3 m/s 757 mmHg 53%
    11:00 +37°C° 0 mm 4 m/s 756 mmHg 50%
    12:00 +38°C° 0 mm 4 m/s 756 mmHg 47%
    13:00 +37°C° 0 mm 5 m/s 755 mmHg 49%
    14:00 +37°C° 0 mm 5 m/s 755 mmHg 51%
    15:00 +36°C° 0 mm 5 m/s 754 mmHg 53%
    16:00 +35°C° 0 mm 5 m/s 755 mmHg 59%
    17:00 +33°C° 0 mm 5 m/s 755 mmHg 66%
    18:00 +32°C° 0 mm 5 m/s 755 mmHg 72%
    19:00 +32°C° 0 mm 6 m/s 755 mmHg 75%
    20:00 +32°C° 0 mm 6 m/s 756 mmHg 77%
    21:00 +30°C° 0 mm 6 m/s 756 mmHg 80%
    22:00 +30°C° 0 mm 6 m/s 756 mmHg 80%
    23:00 +30°C° 0 mm 6 m/s 756 mmHg 80%

    Amanhã, 26 Maio, Domingo

    Tempo Temperatura Precipitação Vento Pressão Humidade
    00:00 +30°C° 0 mm 6 m/s 756 mmHg 80%
    01:00 +30°C° 0.1 mm 6 m/s 756 mmHg 81%
    02:00 +29°C° 0.1 mm 5 m/s 756 mmHg 83%
    03:00 +29°C° 0.1 mm 5 m/s 756 mmHg 84%
    04:00 +29°C° 1.2 mm 5 m/s 756 mmHg 85%
    05:00 +28°C° 1.2 mm 4 m/s 756 mmHg 87%
    06:00 +28°C° 1.2 mm 3 m/s 756 mmHg 89%
    07:00 +29°C° 0.2 mm 3 m/s 757 mmHg 86%
    08:00 +29°C° 0.2 mm 3 m/s 757 mmHg 84%
    09:00 +30°C° 0.2 mm 3 m/s 758 mmHg 82%
    10:00 +30°C° 0.3 mm 3 m/s 757 mmHg 78%
    11:00 +32°C° 0.3 mm 4 m/s 757 mmHg 75%
    12:00 +33°C° 0.3 mm 4 m/s 757 mmHg 72%
    13:00 +33°C° 0.1 mm 4 m/s 756 mmHg 71%
    14:00 +33°C° 0.1 mm 4 m/s 755 mmHg 69%
    15:00 +34°C° 0.1 mm 5 m/s 754 mmHg 68%
    16:00 +33°C° 0 mm 5 m/s 754 mmHg 70%
    17:00 +32°C° 0 mm 5 m/s 754 mmHg 72%
    18:00 +32°C° 0 mm 6 m/s 755 mmHg 73%
    19:00 +30°C° 0 mm 5 m/s 755 mmHg 75%
    20:00 +30°C° 0 mm 5 m/s 756 mmHg 77%
    21:00 +30°C° 0 mm 5 m/s 757 mmHg 78%
    22:00 +30°C° 0.4 mm 5 m/s 757 mmHg 81%
    23:00 +29°C° 0.4 mm 5 m/s 757 mmHg 84%

    Depois de amanhã, 27 Maio, Segunda-feira

    Tempo Temperatura Precipitação Vento Pressão Humidade
    00:00 +29°C° 0.4 mm 5 m/s 757 mmHg 87%
    01:00 +29°C° 0.6 mm 5 m/s 756 mmHg 88%
    02:00 +29°C° 0.6 mm 5 m/s 756 mmHg 88%
    03:00 +28°C° 0.6 mm 5 m/s 755 mmHg 89%
    04:00 +28°C° 1.1 mm 5 m/s 755 mmHg 89%
    05:00 +28°C° 1.1 mm 5 m/s 756 mmHg 89%
    06:00 +28°C° 1.1 mm 5 m/s 756 mmHg 89%
    07:00 +29°C° 0.2 mm 5 m/s 756 mmHg 87%
    08:00 +30°C° 0.2 mm 5 m/s 757 mmHg 84%
    09:00 +30°C° 0.2 mm 5 m/s 757 mmHg 81%
    10:00 +32°C° 0.1 mm 5 m/s 757 mmHg 76%
    11:00 +33°C° 0.1 mm 6 m/s 756 mmHg 70%
    12:00 +34°C° 0.1 mm 6 m/s 756 mmHg 65%
    13:00 +34°C° 0 mm 6 m/s 755 mmHg 64%
    14:00 +35°C° 0 mm 6 m/s 755 mmHg 62%
    15:00 +35°C° 0 mm 7 m/s 754 mmHg 61%
    16:00 +33°C° 0 mm 6 m/s 754 mmHg 67%
    17:00 +32°C° 0 mm 6 m/s 755 mmHg 72%
    18:00 +30°C° 0 mm 5 m/s 755 mmHg 78%
    19:00 +30°C° 0 mm 5 m/s 756 mmHg 79%
    20:00 +30°C° 0 mm 5 m/s 756 mmHg 80%
    21:00 +29°C° 0 mm 5 m/s 757 mmHg 81%
    22:00 +29°C° 0 mm 5 m/s 757 mmHg 81%
    23:00 +29°C° 0 mm 5 m/s 757 mmHg 81%

    28 Maio, Terça-feira

    Tempo Temperatura Precipitação Vento Pressão Humidade
    00:00 +29°C° 0 mm 5 m/s 756 mmHg 81%
    01:00 +29°C° 0 mm 5 m/s 756 mmHg 81%
    02:00 +29°C° 0 mm 5 m/s 756 mmHg 81%
    03:00 +29°C° 0 mm 5 m/s 755 mmHg 81%
    04:00 +29°C° 0 mm 5 m/s 756 mmHg 82%
    05:00 +29°C° 0 mm 5 m/s 756 mmHg 82%
    06:00 +29°C° 0 mm 5 m/s 756 mmHg 82%
    07:00 +30°C° 0 mm 5 m/s 756 mmHg 75%
    08:00 +32°C° 0 mm 5 m/s 757 mmHg 69%
    09:00 +33°C° 0 mm 4 m/s 757 mmHg 63%
    10:00 +33°C° 0.8 mm 4 m/s 757 mmHg 62%
    11:00 +34°C° 0.8 mm 5 m/s 757 mmHg 60%
    12:00 +34°C° 0.8 mm 5 m/s 757 mmHg 59%
    13:00 +34°C° 0 mm 5 m/s 756 mmHg 60%
    14:00 +34°C° 0 mm 5 m/s 755 mmHg 60%
    15:00 +34°C° 0 mm 5 m/s 755 mmHg 61%
    16:00 +33°C° 0 mm 5 m/s 755 mmHg 65%
    17:00 +32°C° 0 mm 5 m/s 755 mmHg 70%
    18:00 +30°C° 0 mm 5 m/s 756 mmHg 75%
    19:00 +30°C° 0 mm 5 m/s 756 mmHg 77%
    20:00 +29°C° 0 mm 5 m/s 756 mmHg 78%
    21:00 +29°C° 0 mm 5 m/s 757 mmHg 80%
    22:00 +29°C° 0 mm 5 m/s 757 mmHg 80%
    23:00 +29°C° 0 mm 5 m/s 757 mmHg 81%

    29 Maio, Quarta-feira

    Tempo Temperatura Precipitação Vento Pressão Humidade
    00:00 +29°C° 0 mm 4 m/s 756 mmHg 81%
    01:00 +29°C° 0.1 mm 4 m/s 756 mmHg 83%
    02:00 +28°C° 0.1 mm 4 m/s 755 mmHg 85%
    03:00 +28°C° 0.1 mm 4 m/s 755 mmHg 87%
    04:00 +28°C° 0 mm 4 m/s 755 mmHg 87%
    05:00 +28°C° 0 mm 4 m/s 756 mmHg 86%
    06:00 +28°C° 0 mm 4 m/s 756 mmHg 86%
    07:00 +29°C° 0 mm 4 m/s 757 mmHg 83%
    08:00 +30°C° 0 mm 4 m/s 757 mmHg 79%
    09:00 +32°C° 0 mm 4 m/s 757 mmHg 75%
    10:00 +33°C° 0 mm 4 m/s 757 mmHg 70%
    11:00 +34°C° 0 mm 5 m/s 756 mmHg 65%
    12:00 +35°C° 0 mm 5 m/s 756 mmHg 59%
    13:00 +35°C° 0 mm 5 m/s 755 mmHg 60%
    14:00 +35°C° 0 mm 5 m/s 755 mmHg 60%
    15:00 +35°C° 0 mm 6 m/s 754 mmHg 60%
    16:00 +34°C° 0 mm 6 m/s 754 mmHg 65%
    17:00 +33°C° 0 mm 5 m/s 755 mmHg 71%
    18:00 +32°C° 0 mm 5 m/s 755 mmHg 76%
    19:00 +30°C° 0 mm 5 m/s 755 mmHg 78%
    20:00 +30°C° 0 mm 5 m/s 756 mmHg 80%
    21:00 +30°C° 0 mm 5 m/s 757 mmHg 82%
    22:00 +30°C° 0.1 mm 5 m/s 756 mmHg 84%
    23:00 +29°C° 0.1 mm 4 m/s 756 mmHg 85%

    30 Maio, Quinta-feira

    Tempo Temperatura Precipitação Vento Pressão Humidade
    00:00 +29°C° 0.1 mm 4 m/s 756 mmHg 87%
    01:00 +29°C° 0.1 mm 4 m/s 755 mmHg 87%
    02:00 +29°C° 0.1 mm 4 m/s 755 mmHg 88%
    03:00 +29°C° 0.1 mm 4 m/s 755 mmHg 88%
    04:00 +29°C° 0.8 mm 4 m/s 755 mmHg 89%
    05:00 +28°C° 0.8 mm 3 m/s 756 mmHg 89%
    06:00 +28°C° 0.8 mm 2 m/s 756 mmHg 89%
    07:00 +29°C° 0 mm 2 m/s 756 mmHg 84%
    08:00 +30°C° 0 mm 3 m/s 757 mmHg 79%
    09:00 +31°C° 0 mm 3 m/s 757 mmHg 74%
    10:00 +33°C° 0.1 mm 3 m/s 757 mmHg 70%
    11:00 +34°C° 0.1 mm 4 m/s 756 mmHg 66%
    12:00 +35°C° 0.1 mm 4 m/s 756 mmHg 61%
    13:00 +34°C° 0.4 mm 5 m/s 755 mmHg 63%
    14:00 +34°C° 0.4 mm 5 m/s 755 mmHg 64%
    15:00 +33°C° 0.4 mm 6 m/s 754 mmHg 66%
    16:00 +33°C° 0 mm 5 m/s 755 mmHg 70%
    17:00 +32°C° 0 mm 5 m/s 755 mmHg 73%
    18:00 +30°C° 0 mm 5 m/s 756 mmHg 77%
    19:00 +30°C° 0.1 mm 5 m/s 756 mmHg 79%
    20:00 +29°C° 0.1 mm 4 m/s 757 mmHg 81%
    21:00 +29°C° 0.1 mm 4 m/s 757 mmHg 83%
    22:00 +29°C° 0 mm 4 m/s 757 mmHg 83%
    23:00 +29°C° 0 mm 4 m/s 756 mmHg 84%
    Mostrar mais